GW2898 Weather Reports


Display with metric or nautical units.
time (UTC)temp
F
wind
direction
speed
MPH
gust
MPH
rain 1hr
in
rain 24hr
in
rain mn
in
humidity
%
barometer
mb
20260903160121 90 258 4.0 4.0 0.00 0.00 0.00 50 1017.3
20260903155620 89 218 4.0 5.0 0.00 0.00 0.00 53 1017.3
20260903155115 90 269 0.0 4.0 0.00 0.00 0.00 52 1017.1
20260903154611 90 166 1.0 3.0 0.00 0.00 0.00 51 1017.4
20260903154107 90 162 2.0 4.0 0.00 0.00 0.00 52 1017.4
20260903153602 89 207 2.0 4.0 0.00 0.00 0.00 53 1017.1
20260903153058 89 157 3.0 5.0 0.00 0.00 0.00 53 1017.3
20260903152554 89 157 2.0 3.0 0.00 0.00 0.00 53 1017.4
20260903152050 88 189 0.0 4.0 0.00 0.00 0.00 57 1017.2
20260903151549 88 221 0.0 3.0 0.00 0.00 0.00 56 1017.1
20260903151045 87 141 0.0 4.0 0.00 0.00 0.00 57 1017.1
20260903150538 87 204 1.0 3.0 0.00 0.00 0.00 58 1017.4
20260903150034 87 195 2.0 7.0 0.00 0.00 0.00 57 1017.4
20260903145528 86 187 1.0 5.0 0.00 0.00 0.00 58 1017.3
20260903145024 87 154 3.0 4.0 0.00 0.00 0.00 58 1017.4
20260903144522 86 147 2.0 6.0 0.00 0.00 0.00 58 1017.6
20260903144019 86 160 3.0 4.0 0.00 0.00 0.00 59 1017.4
20260903143515 86 208 3.0 5.0 0.00 0.00 0.00 59 1017.5
20260903143010 86 193 0.0 3.0 0.00 0.00 0.00 60 1017.4
20260903142505 86 203 3.0 4.0 0.00 0.00 0.00 59 1017.2
20260903142002 85 147 0.0 2.0 0.00 0.00 0.00 60 1017.4
20260903141457 84 129 0.0 2.0 0.00 0.00 0.00 62 1017.4
20260903140953 84 141 0.0 3.0 0.00 0.00 0.00 61 1017.3
20260903140448 85 110 0.0 1.0 0.00 0.00 0.00 61 1017.1
20260903135943 84 62 2.0 3.0 0.00 0.00 0.00 61 1017.0
20260903135438 83 62 0.0 2.0 0.00 0.00 0.00 65 1016.9
20260903134933 80 92 0.0 1.0 0.00 0.00 0.00 68 1017.0
20260903134431 79 104 0.0 0.0 0.00 0.00 0.00 68 1016.8
20260903133929 79 89 0.0 0.0 0.00 0.00 0.00 68 1016.9
20260903133426 79 89 0.0 0.0 0.00 0.00 0.00 67 1016.5
20260903132921 78 89 0.0 1.0 0.00 0.00 0.00 67 1016.6
20260903132416 78 60 0.0 0.0 0.00 0.00 0.00 66 1016.5
20260903131910 78 60 0.0 0.0 0.00 0.00 0.00 65 1016.4
20260903131405 78 157 0.0 0.0 0.00 0.00 0.00 65 1016.4
20260903130904 78 63 0.0 1.0 0.00 0.00 0.00 65 1016.3
20260903130359 78 37 0.0 0.0 0.00 0.00 0.00 65 1016.3
20260903125858 78 242 0.0 1.0 0.00 0.00 0.00 65 1016.3
20260903125352 78 131 0.0 2.0 0.00 0.00 0.00 66 1016.4
20260903124851 78 119 0.0 1.0 0.00 0.00 0.00 66 1016.3
20260903124342 78 89 0.0 1.0 0.00 0.00 0.00 66 1016.1
20260903123840 78 25 0.0 1.0 0.00 0.00 0.00 65 1016.3
20260903123335 79 37 0.0 1.0 0.00 0.00 0.00 64 1016.3
20260903122834 79 246 0.0 0.0 0.00 0.00 0.00 64 1016.2
20260903122329 79 154 0.0 1.0 0.00 0.00 0.00 64 1015.8
20260903121827 79 117 0.0 2.0 0.00 0.00 0.00 64 1016.1
20260903121323 79 142 0.0 1.0 0.00 0.00 0.00 64 1015.7
20260903120818 79 117 0.0 1.0 0.00 0.00 0.00 64 1015.6
20260903120312 79 116 0.0 1.0 0.00 0.00 0.00 64 1015.7
20260903115811 79 104 0.0 1.0 0.00 0.00 0.00 64 1015.5
20260903115306 79 222 0.0 1.0 0.00 0.00 0.00 64 1015.6
20260903114805 80 104 0.0 1.0 0.00 0.00 0.00 63 1015.5
20260903114301 80 343 0.0 1.0 0.00 0.00 0.00 63 1015.5
20260903113756 80 340 0.0 1.0 0.00 0.00 0.00 63 1015.5
20260903113252 79 115 0.0 1.0 0.00 0.00 0.00 63 1015.5
20260903112748 79 306 0.0 0.0 0.00 0.00 0.00 63 1015.5
20260903112244 79 284 0.0 1.0 0.00 0.00 0.00 63 1015.5
20260903111742 80 97 3.0 3.0 0.00 0.00 0.00 64 1015.5
20260903111237 80 89 0.0 0.0 0.00 0.00 0.00 62 1015.4
20260903110733 79 89 0.0 0.0 0.00 0.00 0.00 62 1015.5
20260903110229 80 117 0.0 0.0 0.00 0.00 0.00 61 1015.5
20260903105728 80 102 0.0 1.0 0.00 0.00 0.00 62 1015.4
20260903105224 80 106 0.0 1.0 0.00 0.00 0.00 64 1015.3
20260903104723 80 96 1.0 2.0 0.00 0.00 0.00 65 1015.2
20260903104219 80 297 0.0 1.0 0.00 0.00 0.00 65 1015.3
20260903103714 79 38 0.0 0.0 0.00 0.00 0.00 65 1015.3
20260903103211 80 38 0.0 0.0 0.00 0.00 0.00 65 1015.3
20260903102706 80 88 2.0 4.0 0.00 0.00 0.00 67 1015.3
20260903102200 79 336 0.0 0.0 0.00 0.00 0.00 67 1015.3
20260903101658 79 336 0.0 2.0 0.00 0.00 0.00 67 1015.2
20260903101155 79 104 0.0 0.0 0.00 0.00 0.00 67 1015.2
20260903100654 80 104 0.0 0.0 0.00 0.00 0.00 67 1015.3
20260903100154 80 87 0.0 1.0 0.00 0.00 0.00 67 1015.2
20260903095652 79 74 1.0 1.0 0.00 0.00 0.00 68 1015.4
20260903095152 79 117 0.0 1.0 0.00 0.00 0.00 68 1015.3
20260903094647 79 38 0.0 0.0 0.00 0.00 0.00 68 1015.3
20260903094142 79 38 0.0 0.0 0.00 0.00 0.00 67 1015.4
20260903093638 80 25 0.0 2.0 0.00 0.00 0.00 67 1015.4
20260903093133 79 142 0.0 2.0 0.00 0.00 0.00 68 1015.4
20260903092632 79 104 0.0 2.0 0.00 0.00 0.00 69 1015.2
20260903092127 79 113 0.0 0.0 0.00 0.00 0.00 69 1015.1
20260903091626 79 113 0.0 0.0 0.00 0.00 0.00 68 1015.3
20260903091120 79 113 0.0 0.0 0.00 0.00 0.00 67 1015.3
20260903090616 80 62 0.0 1.0 0.00 0.00 0.00 67 1015.1
20260903090115 80 76 0.0 1.0 0.00 0.00 0.00 66 1015.2
20260903085614 80 55 0.0 1.0 0.00 0.00 0.00 65 1015.3
20260903085109 80 20 0.0 1.0 0.00 0.00 0.00 65 1015.2
20260903084607 80 113 1.0 1.0 0.00 0.00 0.00 64 1015.2
20260903084102 81 117 0.0 1.0 0.00 0.00 0.00 63 1015.1
20260903083558 81 54 0.0 1.0 0.00 0.00 0.00 62 1015.4
20260903083057 82 345 1.0 2.0 0.00 0.00 0.00 61 1015.1
20260903082551 82 113 0.0 0.0 0.00 0.00 0.00 60 1015.0
20260903082047 82 113 0.0 0.0 0.00 0.00 0.00 60 1015.1
20260903081542 82 113 0.0 0.0 0.00 0.00 0.00 60 1015.2
20260903081038 82 113 0.0 0.0 0.00 0.00 0.00 60 1015.1
20260903080534 82 113 0.0 1.0 0.00 0.00 0.00 59 1015.1
20260903080032 83 135 0.0 1.0 0.00 0.00 0.00 58 1015.2
20260903075525 83 135 0.0 1.0 0.00 0.00 0.00 58 1015.3
20260903075021 83 113 0.0 1.0 0.00 0.00 0.00 57 1015.1
20260903074520 84 104 0.0 0.0 0.00 0.00 0.00 57 1014.9
20260903074015 85 230 0.0 0.0 0.00 0.00 0.00 56 1015.1
20260903073510 85 142 0.0 2.0 0.00 0.00 0.00 55 1015.3
20260903073006 85 246 0.0 0.0 0.00 0.00 0.00 54 1015.1
20260903072502 85 205 0.0 2.0 0.00 0.00 0.00 54 1014.9
20260903071958 86 237 0.0 0.0 0.00 0.00 0.00 54 1015.1
20260903071454 86 153 0.0 2.0 0.00 0.00 0.00 53 1015.4
20260903070949 86 154 0.0 1.0 0.00 0.00 0.00 53 1015.1
20260903070443 87 142 0.0 1.0 0.00 0.00 0.00 52 1015.1
20260903065943 87 167 0.0 3.0 0.00 0.00 0.00 51 1014.8
20260903065438 88 148 1.0 5.0 0.00 0.00 0.00 49 1015.2
20260903064938 88 146 0.0 5.0 0.00 0.00 0.00 48 1015.1
20260903064432 88 217 0.0 4.0 0.00 0.00 0.00 46 1014.9
20260903063928 87 164 1.0 2.0 0.00 0.00 0.00 43 1015.1
20260903063423 86 129 0.0 2.0 0.00 0.00 0.00 43 1014.9
20260903062920 86 142 0.0 0.0 0.00 0.00 0.00 47 1014.9
20260903062419 86 246 0.0 0.0 0.00 0.00 0.00 50 1014.7
20260903061915 86 246 0.0 0.0 0.00 0.00 0.00 50 1014.9
20260903061414 86 246 0.0 0.0 0.00 0.00 0.00 50 1014.7
20260903060910 86 246 0.0 0.0 0.00 0.00 0.00 49 1014.8
20260903060405 87 246 0.0 0.0 0.00 0.00 0.00 49 1014.8
20260903055902 87 89 0.0 1.0 0.00 0.00 0.00 49 1014.9
20260903055401 87 117 0.0 0.0 0.00 0.00 0.00 48 1014.8
20260903054855 87 119 0.0 2.0 0.00 0.00 0.00 48 1014.9
20260903054350 87 50 0.0 1.0 0.00 0.00 0.00 49 1014.7
20260903053846 88 343 0.0 1.0 0.00 0.00 0.00 48 1014.6
20260903053341 87 0 0.0 1.0 0.00 0.00 0.00 48 1014.6
20260903052837 88 142 0.0 0.0 0.00 0.00 0.00 47 1014.8
20260903052332 88 142 0.0 0.0 0.00 0.00 0.00 45 1015.0
20260903051829 89 142 0.0 0.0 0.00 0.00 0.00 44 1014.9
20260903051324 90 142 0.0 0.0 0.00 0.00 0.00 43 1014.8
20260903050819 90 142 0.0 0.0 0.00 0.00 0.00 43 1014.7
20260903050318 91 142 0.0 1.0 0.00 0.00 0.00 42 1014.8
20260903045813 91 205 0.0 1.0 0.00 0.00 0.00 41 1014.6
20260903045309 92 214 0.0 0.0 0.00 0.00 0.00 41 1014.7
20260903044805 92 214 0.0 2.0 0.00 0.00 0.00 40 1014.7
20260903044300 93 215 0.0 2.0 0.00 0.00 0.00 39 1014.6
20260903043757 93 250 0.0 2.0 0.00 0.00 0.00 38 1014.6
20260903043256 93 246 0.0 3.0 0.00 0.00 0.00 38 1014.9
20260903042755 93 237 2.0 3.0 0.00 0.00 0.00 39 1014.8
20260903042251 93 253 0.0 2.0 0.00 0.00 0.00 38 1014.7
20260903041747 94 202 0.0 1.0 0.00 0.00 0.00 38 1014.7
20260903041243 94 209 0.0 3.0 0.00 0.00 0.00 38 1014.8
20260903040742 94 212 0.0 3.0 0.00 0.00 0.00 37 1014.7
20260903040237 95 228 2.0 4.0 0.00 0.00 0.00 37 1014.7
20260903035733 94 254 1.0 2.0 0.00 0.00 0.00 37 1014.7
20260903035229 95 199 2.0 2.0 0.00 0.00 0.00 37 1014.7
20260903034728 95 239 2.0 3.0 0.00 0.00 0.00 36 1014.4
20260903034224 95 242 0.0 2.0 0.00 0.00 0.00 37 1014.4
20260903033720 95 266 3.0 5.0 0.00 0.00 0.00 36 1014.3
20260903033219 95 303 1.0 3.0 0.00 0.00 0.00 35 1014.4
20260903032714 96 326 3.0 5.0 0.00 0.00 0.00 34 1014.2
20260903032210 96 319 2.0 4.0 0.00 0.00 0.00 35 1014.0
20260903031706 96 318 3.0 5.0 0.00 0.00 0.00 35 1014.0
20260903031159 96 272 2.0 4.0 0.00 0.00 0.00 34 1014.2
20260903030655 96 275 3.0 4.0 0.00 0.00 0.00 34 1014.0
20260903030150 96 66 1.0 3.0 0.00 0.00 0.00 35 1013.9
20260903025645 96 258 0.0 3.0 0.00 0.00 0.00 34 1013.7
20260903025141 96 299 1.0 6.0 0.00 0.00 0.00 34 1013.9
20260903024636 96 241 2.0 6.0 0.00 0.00 0.00 34 1014.0
20260903024135 96 259 3.0 6.0 0.00 0.00 0.00 33 1013.8
20260903023631 96 259 4.0 6.0 0.00 0.00 0.00 33 1013.8
20260903023126 96 235 5.0 8.0 0.00 0.00 0.00 33 1013.8
20260903022620 97 282 3.0 8.0 0.00 0.00 0.00 33 1013.6
20260903022119 97 237 2.0 3.0 0.00 0.00 0.00 34 1013.7
20260903021614 97 267 3.0 6.0 0.00 0.00 0.00 33 1013.6
20260903021113 97 322 2.0 8.0 0.00 0.00 0.00 33 1013.5
20260903020609 97 226 3.0 5.0 0.00 0.00 0.00 33 1013.7
20260903020104 97 254 4.0 9.0 0.00 0.00 0.00 32 1013.6
20260903015600 97 269 3.0 8.0 0.00 0.00 0.00 33 1013.6
20260903015055 97 215 2.0 5.0 0.00 0.00 0.00 33 1013.6
20260903014554 97 278 6.0 10.0 0.00 0.00 0.00 33 1013.4
20260903014049 97 267 4.0 7.0 0.00 0.00 0.00 33 1013.5
20260903013549 97 297 0.0 4.0 0.00 0.00 0.00 34 1013.3
20260903013043 97 238 1.0 4.0 0.00 0.00 0.00 33 1013.4
20260903012537 98 237 2.0 7.0 0.00 0.00 0.00 33 1013.4
20260903012036 98 239 4.0 6.0 0.00 0.00 0.00 33 1013.3
20260903011536 98 261 2.0 5.0 0.00 0.00 0.00 32 1013.2
20260903011031 98 191 2.0 4.0 0.00 0.00 0.00 32 1013.4
20260903010526 99 232 3.0 8.0 0.00 0.00 0.00 32 1013.3
20260903010026 101 226 4.0 6.0 0.00 0.00 0.00 31 1013.5
20260903005526 101 252 2.0 4.0 0.00 0.00 0.00 31 1013.3
20260903005021 101 318 3.0 4.0 0.00 0.00 0.00 31 1013.5
20260903004521 101 333 2.0 6.0 0.00 0.00 0.00 30 1013.2
20260903004016 101 269 4.0 6.0 0.00 0.00 0.00 31 1013.4
20260903003512 100 318 3.0 4.0 0.00 0.00 0.00 31 1013.4
20260903003008 100 304 4.0 6.0 0.00 0.00 0.00 31 1013.2
20260903002506 100 269 2.0 8.0 0.00 0.00 0.00 31 1013.5
20260903002001 101 268 5.0 9.0 0.00 0.00 0.00 30 1013.4
20260903001456 100 232 4.0 7.0 0.00 0.00 0.00 30 1013.4
20260903000950 99 266 4.0 11.0 0.00 0.00 0.00 31 1013.6
20260903000447 100 274 7.0 11.0 0.00 0.00 0.00 30 1013.6
20260902235943 102 198 1.0 3.0 0.00 0.00 0.00 30 1013.5
20260902235438 101 231 3.0 13.0 0.00 0.00 0.00 32 1013.4
20260902234932 101 241 2.0 5.0 0.00 0.00 0.00 29 1013.8
20260902234428 102 206 3.0 5.0 0.00 0.00 0.00 31 1013.7
20260902233927 101 303 4.0 8.0 0.00 0.00 0.00 30 1013.8
20260902233421 103 342 1.0 5.0 0.00 0.00 0.00 30 1013.7
20260902232920 102 290 3.0 9.0 0.00 0.00 0.00 30 1013.5
20260902232415 101 219 2.0 7.0 0.00 0.00 0.00 31 1013.7
20260902231914 99 150 1.0 4.0 0.00 0.00 0.00 32 1013.8
20260902231410 100 245 3.0 6.0 0.00 0.00 0.00 32 1014.2
20260902230904 100 232 6.0 9.0 0.00 0.00 0.00 30 1014.2
20260902230404 102 236 6.0 10.0 0.00 0.00 0.00 28 1014.1
20260902225857 102 241 6.0 18.0 0.00 0.00 0.00 29 1014.2
20260902225353 102 312 4.0 8.0 0.00 0.00 0.00 28 1014.2
20260902224851 102 160 5.0 8.0 0.00 0.00 0.00 29 1014.2
20260902224346 102 228 0.0 8.0 0.00 0.00 0.00 31 1014.4
20260902223843 104 273 3.0 6.0 0.00 0.00 0.00 28 1014.4
20260902223342 101 38 0.0 5.0 0.00 0.00 0.00 29 1014.4
20260902222837 103 239 0.0 5.0 0.00 0.00 0.00 27 1014.5
20260902222336 102 236 6.0 9.0 0.00 0.00 0.00 29 1014.4
20260902221831 102 231 6.0 6.0 0.00 0.00 0.00 28 1014.8
20260902221330 102 350 4.0 5.0 0.00 0.00 0.00 27 1014.7
20260902220825 102 224 4.0 6.0 0.00 0.00 0.00 27 1014.8
20260902220324 102 327 6.0 8.0 0.00 0.00 0.00 28 1015.0
20260902215820 101 332 8.0 8.0 0.00 0.00 0.00 28 1015.1
20260902215314 102 268 5.0 10.0 0.00 0.00 0.00 29 1014.9
20260902214810 101 202 4.0 6.0 0.00 0.00 0.00 30 1015.2
20260902214309 102 205 2.0 5.0 0.00 0.00 0.00 32 1015.0
20260902213805 102 27 1.0 3.0 0.00 0.00 0.00 28 1015.2
20260902213300 100 235 3.0 9.0 0.00 0.00 0.00 31 1015.1
20260902212759 100 271 2.0 6.0 0.00 0.00 0.00 30 1015.3
20260902212256 101 148 4.0 7.0 0.00 0.00 0.00 30 1015.3
20260902211751 100 281 3.0 5.0 0.00 0.00 0.00 28 1015.4
20260902211248 101 242 9.0 10.0 0.00 0.00 0.00 29 1015.4
20260902210747 101 269 4.0 7.0 0.00 0.00 0.00 29 1015.5
20260902210242 100 231 8.0 10.0 0.00 0.00 0.00 31 1015.5
20260902205740 100 108 1.0 5.0 0.00 0.00 0.00 31 1015.8
20260902205236 100 236 2.0 9.0 0.00 0.00 0.00 31 1015.7
20260902204731 100 220 4.0 10.0 0.00 0.00 0.00 33 1016.2
20260902204226 100 240 2.0 6.0 0.00 0.00 0.00 33 1016.1
20260902203721 100 227 2.0 4.0 0.00 0.00 0.00 29 1016.2
20260902203216 100 254 3.0 8.0 0.00 0.00 0.00 30 1016.4
20260902202716 99 153 0.0 10.0 0.00 0.00 0.00 31 1016.2
20260902202213 99 203 2.0 10.0 0.00 0.00 0.00 34 1016.3
20260902201709 100 146 2.0 3.0 0.00 0.00 0.00 33 1016.4
20260902201208 99 197 5.0 7.0 0.00 0.00 0.00 33 1016.7
20260902200703 99 223 4.0 6.0 0.00 0.00 0.00 32 1016.5
20260902200159 99 203 3.0 7.0 0.00 0.00 0.00 32 1016.8
20260902195654 99 203 3.0 9.0 0.00 0.00 0.00 32 1016.8
20260902195154 98 226 3.0 5.0 0.00 0.00 0.00 33 1017.1
20260902194647 97 239 3.0 7.0 0.00 0.00 0.00 31 1017.0
20260902194143 98 261 5.0 6.0 0.00 0.00 0.00 33 1017.0
20260902193638 98 228 2.0 6.0 0.00 0.00 0.00 34 1017.2
20260902193133 97 232 3.0 10.0 0.00 0.00 0.00 38 1017.1
20260902192631 97 1 1.0 5.0 0.00 0.00 0.00 34 1017.3
20260902192130 96 219 3.0 5.0 0.00 0.00 0.00 34 1017.6
20260902191625 96 217 0.0 6.0 0.00 0.00 0.00 38 1017.7
20260902191119 97 225 2.0 7.0 0.00 0.00 0.00 37 1017.7
20260902190615 97 176 2.0 5.0 0.00 0.00 0.00 37 1017.6
20260902190110 97 295 4.0 5.0 0.00 0.00 0.00 33 1017.6
20260902185606 97 153 1.0 3.0 0.00 0.00 0.00 34 1017.8
20260902185101 97 213 2.0 7.0 0.00 0.00 0.00 37 1017.9
20260902184556 96 268 3.0 12.0 0.00 0.00 0.00 36 1018.0
20260902184051 96 205 3.0 5.0 0.00 0.00 0.00 37 1017.9
20260902183548 96 232 5.0 8.0 0.00 0.00 0.00 37 1018.0
20260902183044 97 193 0.0 5.0 0.00 0.00 0.00 35 1018.1
20260902182540 96 158 5.0 8.0 0.00 0.00 0.00 37 1018.2
20260902182036 95 241 1.0 9.0 0.00 0.00 0.00 39 1018.3
20260902181532 96 217 2.0 5.0 0.00 0.00 0.00 36 1018.4
20260902181026 96 258 0.0 5.0 0.00 0.00 0.00 40 1018.4
20260902180526 95 241 4.0 9.0 0.00 0.00 0.00 37 1018.4
20260902180022 96 254 4.0 10.0 0.00 0.00 0.00 38 1018.4
20260902175516 96 258 5.0 9.0 0.00 0.00 0.00 35 1018.5
20260902175013 95 244 5.0 9.0 0.00 0.00 0.00 35 1018.7
20260902174509 95 224 1.0 6.0 0.00 0.00 0.00 38 1018.4
20260902174004 95 247 4.0 9.0 0.00 0.00 0.00 38 1018.5
20260902173503 94 245 7.0 7.0 0.00 0.00 0.00 39 1018.5
20260902172958 95 218 4.0 7.0 0.00 0.00 0.00 40 1018.5
20260902172457 95 236 2.0 4.0 0.00 0.00 0.00 38 1018.7
20260902171953 94 199 3.0 5.0 0.00 0.00 0.00 38 1018.7
20260902171448 95 192 3.0 6.0 0.00 0.00 0.00 37 1018.6
20260902170944 95 217 1.0 6.0 0.00 0.00 0.00 39 1018.7
20260902170439 95 220 2.0 4.0 0.00 0.00 0.00 43 1018.3
20260902165935 94 214 4.0 6.0 0.00 0.00 0.00 42 1018.6
20260902165434 94 216 1.0 4.0 0.00 0.00 0.00 41 1018.7
20260902164928 93 242 5.0 7.0 0.00 0.00 0.00 41 1018.5
20260902164424 93 213 0.0 4.0 0.00 0.00 0.00 48 1018.7
20260902163922 92 250 3.0 8.0 0.00 0.00 0.00 47 1018.6
20260902163418 92 232 4.0 7.0 0.00 0.00 0.00 47 1018.9
20260902162915 92 158 2.0 5.0 0.00 0.00 0.00 51 1018.7
20260902162411 91 164 0.0 6.0 0.00 0.00 0.00 52 1018.9
20260902161906 90 208 2.0 4.0 0.00 0.00 0.00 53 1018.6
20260902161401 91 258 3.0 6.0 0.00 0.00 0.00 53 1018.9
20260902160858 90 119 1.0 5.0 0.00 0.00 0.00 55 1018.9